Tracking 19564 objects as of 18-Mar-2019
HD Live streaming from Space Station
objects crossing your sky now

METEOR 3-6

Track METEOR 3-6 now!
10-day predictions
METEOR 3-6 is classified as:


NORAD ID: 22969
Int'l Code: 1994-003A
Perigee: 1,192.4 km
Apogee: 1,214.3 km
Inclination: 82.6 °
Period: 109.3 minutes
Semi major axis: 7574 km
RCS: 4.6195 m2 (large)
Launch date: January 25, 1994
Source: Commonwealth of Independent States (former USSR) (CIS)
Launch site: PLESETSK MISSILE AND SPACE COMPLEX (PKMTR)
aabbcc
Your satellite tracking list
Your tracking list is empty




NASA's NSSDC Master Catalog

Two Line Element Set (TLE):
1 22969U 94003A   19077.18462939 -.00000033  00000-0 -11677-3 0  9993
2 22969  82.5644 156.5293 0014468 353.3478   6.7450 13.16990013208652
Source of the keplerian elements: AFSPC